FLOCK 2E'-6

Last updated on April 5, 2018, 12:15 a.m. UTC

1 41568U 98067JS  18094.83710307  .06855058  12215-4  99345-3 0  9990
2 41568  51.6165 313.1878 0010378 267.0639  92.9198 16.33683091105692

Satellite is not in orbit.